This is the latest recevied weather packets stored in our database for station/object iz1wiy-3. If no packets are shown the sender has not sent any weather packets the latest 1 day(s).
| Time | Temp. | Humidity | Pressure | Rain* | Wind** | Luminosity | Snow |
|---|---|---|---|---|---|---|---|
| 1778046783 | 17.22° C | 88% | 1009.4 hPa | 16.76 mm | - | - | - |
| 1778046304 | 16.11° C | 90% | 1009 hPa | 16.76 mm | - | - | - |
| 1778046184 | 16.11° C | 90% | 1009 hPa | 17.27 mm | - | - | - |
| 1778045943 | 16.11° C | 89% | 1008.8 hPa | 17.78 mm | - | - | - |
| 1778045884 | 16.11° C | 89% | 1008.8 hPa | 17.78 mm | - | - | - |
| 1778045523 | 16.11° C | 89% | 1009.1 hPa | 16.76 mm | - | - | - |
| 1778045405 | 16.11° C | 88% | 1009.1 hPa | 16.26 mm | - | - | - |
| 1778045224 | 16.67° C | 87% | 1009.3 hPa | 15.24 mm | - | - | - |
| 1778044983 | 16.67° C | 89% | 1009.4 hPa | 12.7 mm | - | - | - |
| 1778044563 | 16.67° C | 87% | 1009.5 hPa | 9.4 mm | - | - | - |
| 1778044384 | 17.22° C | 87% | 1009.6 hPa | 5.08 mm | - | - | - |
| 1778043964 | 17.22° C | 87% | 1009.2 hPa | 2.03 mm | - | - | - |
| 1778043904 | 17.22° C | 87% | 1009.2 hPa | 2.03 mm | - | - | - |
| 1778043183 | 16.67° C | 88% | 1009.2 hPa | 2.79 mm | - | - | - |
| 1778043124 | 16.67° C | 88% | 1009.2 hPa | 2.79 mm | - | - | - |
| 1778043064 | 17.22° C | 88% | 1009.2 hPa | 2.79 mm | - | - | - |
| 1778042823 | 17.22° C | 88% | 1009.3 hPa | 2.03 mm | - | - | - |
| 1778042463 | 17.22° C | 88% | 1009.3 hPa | 3.81 mm | - | - | - |
| 1778042043 | 17.22° C | 89% | 1009.2 hPa | 3.56 mm | - | - | - |
| 1778041983 | 17.22° C | 89% | 1009.2 hPa | 3.56 mm | - | - | - |
| 1778041504 | 17.22° C | 89% | 1009.1 hPa | 3.56 mm | - | - | - |
| 1778041083 | 17.22° C | 89% | 1009.1 hPa | 3.56 mm | - | - | - |
| 1778041023 | 17.22° C | 89% | 1009.1 hPa | 3.56 mm | - | - | - |
| 1778040783 | 17.22° C | 89% | 1009.2 hPa | 3.81 mm | - | - | - |
| 1778040723 | 16.67° C | 89% | 1009.1 hPa | 3.81 mm | - | - | - |
* Rain latest hour (hover to see other rain measurements)
** Current wind speed in m/s (hover to see current wind gust speed)